DW5450 Weather Reports


time (UTC)temp
F
wind
direction
speed
knots
gust
knots
rain 1hr
in
rain 24hr
in
rain mn
in
humidity
%
barometer
mb
20260504044544 71 335 0.0 0.9 0.00 0.00 0.00 53 1012.5
20260504043043 71 335 0.0 2.6 0.00 0.00 0.00 52 1012.3
20260504041543 71 42 0.0 1.7 0.00 0.00 0.00 54 1012.1
20260504040100 71 51 0.0 0.9 0.00 0.00 0.00 54 1012.0
20260504034543 72 140 0.0 0.9 0.00 0.00 0.00 58 1011.9
20260504033041 74 140 0.0 0.0 0.00 0.00 0.00 58 1011.8
20260504031541 74 140 0.0 0.0 0.00 0.00 0.00 57 1011.7
20260504030041 75 140 0.0 0.9 0.00 0.00 0.00 56 1011.6
20260504024541 75 148 0.0 1.7 0.00 0.00 0.00 57 1011.4
20260504023040 76 132 0.0 1.7 0.00 0.00 0.00 57 1011.4
20260504021540 77 122 0.0 1.7 0.00 0.00 0.00 57 1011.4
20260504020040 78 138 0.9 1.7 0.00 0.00 0.00 55 1011.2
20260504014550 79 126 0.0 2.6 0.00 0.00 0.00 50 1011.0
20260504013116 80 126 0.0 2.6 0.00 0.00 0.00 42 1011.1
20260504011540 80 145 0.9 4.3 0.00 0.00 0.00 40 1011.0
20260504010036 81 121 1.7 7.0 0.00 0.00 0.00 40 1011.0
20260504004543 81 126 1.7 6.1 0.00 0.00 0.00 43 1010.9
20260504003035 82 122 0.9 7.0 0.00 0.00 0.00 39 1010.8
20260504001537 83 143 1.7 8.7 0.00 0.00 0.00 34 1010.8
20260504000034 83 165 4.3 9.6 0.00 0.00 0.00 39 1010.7
20260503234534 84 121 2.6 7.0 0.00 0.00 0.00 40 1010.7
20260503233033 84 178 1.7 7.8 0.00 0.00 0.00 37 1010.7
20260503231533 84 158 2.6 7.8 0.00 0.00 0.00 39 1010.8
20260503230034 85 150 4.3 10.4 0.00 0.00 0.00 42 1010.8
20260503224532 85 173 1.7 7.0 0.00 0.00 0.00 41 1011.1
20260503223031 85 139 2.6 8.7 0.00 0.00 0.00 42 1011.0
20260503221530 85 156 1.7 8.7 0.00 0.00 0.00 42 1011.0
20260503220030 85 202 3.5 9.6 0.00 0.00 0.00 45 1011.1
20260503214529 84 183 1.7 7.0 0.00 0.00 0.00 47 1011.4
20260503213028 83 156 2.6 9.6 0.00 0.00 0.00 46 1011.4
20260503211528 84 165 3.5 8.7 0.00 0.00 0.00 47 1011.4
20260503210028 85 132 3.5 10.4 0.00 0.00 0.00 47 1011.6
20260503204530 85 182 1.7 9.6 0.00 0.00 0.00 43 1011.8
20260503203027 85 143 4.3 9.6 0.00 0.00 0.00 40 1011.9
20260503201527 86 178 5.2 10.4 0.00 0.00 0.00 41 1012.1
20260503200026 87 150 3.5 11.3 0.00 0.00 0.00 43 1012.3
20260503194524 87 176 2.6 10.4 0.00 0.00 0.00 40 1012.2
20260503193036 86 167 2.6 7.8 0.00 0.00 0.00 41 1012.5
20260503191520 86 94 3.5 9.6 0.00 0.00 0.00 42 1012.8
20260503190017 85 177 2.6 9.6 0.00 0.00 0.00 47 1012.8
20260503184523 84 146 3.5 9.6 0.00 0.00 0.00 45 1013.1
20260503183016 84 157 4.3 10.4 0.00 0.00 0.00 50 1013.1
20260503181517 83 182 2.6 10.4 0.00 0.00 0.00 56 1013.1
20260503180019 84 182 1.7 9.6 0.00 0.00 0.00 61 1013.0
20260503174515 83 111 1.7 7.8 0.00 0.00 0.00 67 1013.1
20260503173022 83 169 2.6 9.6 0.00 0.00 0.00 69 1013.1
20260503171521 83 162 4.3 8.7 0.00 0.00 0.00 70 1013.1
20260503081602 65 22 0.0 1.7 0.00 0.00 0.00 66 1011.1
20260503080106 66 23 0.0 0.9 0.00 0.00 0.00 66 1011.3
20260503071604 65 36 0.0 1.7 0.00 0.00 0.00 67 1011.9
20260503070110 66 36 0.0 0.0 0.00 0.00 0.00 67 1012.0